Facebook Twitter

Wetterstation Dahle

Messwerte
  Temperatur Wetter Niederschlag Feuchte Wind
Mo, 02:45 Uhr 10.9 °C - - 100.0 % 11 km/h W
Mo, 02:30 Uhr 11.1 °C - - 100.0 % 12 km/h W
Mo, 02:15 Uhr 11.1 °C - - 100.0 % 12 km/h W
Mo, 02:00 Uhr 11.2 °C - - 100.0 % 12 km/h W
Mo, 01:45 Uhr 11.4 °C - - 100.0 % 12 km/h W
Mo, 01:30 Uhr 11.6 °C - - 100.0 % 10 km/h W
Mo, 01:15 Uhr 11.6 °C - - 100.0 % 8 km/h W
Mo, 01:00 Uhr 11.5 °C - - 100.0 % 8 km/h W
Mo, 00:45 Uhr 11.6 °C - - 100.0 % 4 km/h SW
Mo, 00:30 Uhr 11.7 °C - - 100.0 % 6 km/h W
Mo, 00:15 Uhr 11.8 °C - - 100.0 % 9 km/h W
Mo, 00:00 Uhr 11.8 °C - - 100.0 % 8 km/h W
So, 23:45 Uhr 11.9 °C - - 100.0 % 5 km/h SW
So, 23:30 Uhr 12.0 °C - - 100.0 % 4 km/h SW
So, 23:15 Uhr 12.0 °C - - 100.0 % 9 km/h W
So, 23:00 Uhr 12.0 °C - - 100.0 % 10 km/h W
So, 22:45 Uhr 12.1 °C - - 100.0 % 8 km/h W
So, 22:30 Uhr 12.2 °C - - 100.0 % 6 km/h W
So, 22:15 Uhr 12.1 °C - - 100.0 % 6 km/h SW
So, 22:00 Uhr 12.2 °C - - 100.0 % 6 km/h W

Alle Zeitangaben MESZ